Simultaneous Nadir Overpasses (SNOs) Predictions

Prediction of SNOs between METOP-B and TERRA Satellite Orbit:

Table of predicted SNOs for the next 14.0 days since TLE Epoch: 8/22/2015
Index Date (METOP-B) Time (METOP-B) Lat,Lon (METOP-B) SZA (METOP-B ) Date (TERRA) Time (TERRA) Lat,Lon (TERRA) SZA (TERRA ) Distance(km) Time Diff (sec)
1 08/24/2015 14:18:10 -81.31,-167.30 107.00 08/24/2015 14:19:06 -81.31,-167.27 106.97 0.50 56
2 08/24/2015 15:08:49 81.32, 0.56 73.08 08/24/2015 15:08:32 81.32, 0.44 73.06 2.05 17
3 08/27/2015 09:52:33 -81.31,-101.01 106.02 08/27/2015 09:53:19 -81.31,-100.92 105.99 1.59 46
4 08/27/2015 10:43:12 81.32, 66.83 74.06 08/27/2015 10:42:45 81.31, 66.77 74.03 1.21 27
5 08/30/2015 05:26:55 -81.31, -34.36 104.98 08/30/2015 05:27:31 -81.32, -34.27 104.95 1.58 36
6 08/
